Date String (YYYY-MM-DD hh:mm:ss) UTC,Instrument flags,Ambient pressure (hPa),Sample flow (lpm),Bypass flow (lpm),Sample temperature (°C),Ambient temperature (°C),ASC tube jacket temperature (°C),LED temperature (°C),Box temperature (°C),Sample RH (%),Span deviation,Mass concentration (μg/m³),Mass concentration (μg/m³),Mass concentration (μg/m³)
DateTimeUTC,F1_M11,P_M11,Q1_M11,Q2_M11,T1_M11,T2_M11,T3_M11,T4_M11,T5_M11,U1_M11,ZSPAN_M11,X0_M11,X2_M11,X1_M11
2022-11-13 10:00:00,,0820.9,5.00,0.00,22.1,20.5,00.0,31.0,23.9,08.5,0002.7,0013.67,0007.57,0006.73
2022-11-13 10:01:00,,0820.9,5.01,0.00,22.1,20.5,00.0,31.0,23.9,08.6,0002.5,0012.85,0007.65,0006.78
2022-11-13 10:02:00,,0820.8,4.99,0.00,22.1,20.5,00.0,31.0,23.9,08.7,0002.1,0012.78,0007.67,0006.82
2022-11-13 10:03:00,,0820.7,4.99,0.00,22.0,20.4,00.0,31.0,23.9,08.7,0002.0,0013.21,0007.70,0006.87
2022-11-13 10:04:00,,0820.7,5.00,0.00,22.0,20.4,00.0,30.9,23.8,08.6,0001.5,0013.48,0007.74,0006.91
2022-11-13 10:05:00,,0820.6,5.02,0.00,22.0,20.3,00.0,30.9,23.8,08.8,0000.6,0013.80,0007.86,0007.02
2022-11-13 10:06:00,,0820.6,5.00,0.00,22.0,20.3,00.0,30.9,23.8,09.0,-000.1,0014.21,0008.04,0007.17
2022-11-13 10:07:00,,0820.6,4.99,0.00,22.0,20.6,00.0,30.9,23.9,09.1,-000.4,0014.45,0008.20,0007.33
2022-11-13 10:08:00,,0820.8,5.01,0.00,22.1,21.6,00.0,30.9,24.1,09.0,-000.9,0015.22,0008.41,0007.51
2022-11-13 10:09:00,,0820.9,4.99,0.00,22.2,22.3,00.0,30.9,24.2,08.9,-000.9,0015.44,0008.50,0007.62
2022-11-13 10:10:00,,0820.8,5.00,0.00,22.3,22.1,00.0,30.9,24.3,08.7,-001.5,0015.71,0008.53,0007.68
2022-11-13 10:11:00,,0820.7,5.00,0.00,22.3,21.8,00.0,31.0,24.2,08.4,-001.6,0015.79,0008.54,0007.68
2022-11-13 10:12:00,,0820.7,5.00,0.00,22.3,21.6,00.0,31.0,24.2,08.1,-001.1,0015.47,0008.41,0007.58
2022-11-13 10:13:00,,0820.7,5.00,0.00,22.3,21.4,00.0,31.0,24.2,08.0,-000.8,0015.47,0008.25,0007.44
2022-11-13 10:14:00,,0820.7,5.00,0.00,22.3,21.3,00.0,31.0,24.1,07.9,-001.3,0016.41,0008.09,0007.29
2022-11-13 10:15:00,,0820.7,5.00,0.00,22.3,21.1,00.0,31.0,24.1,07.9,-001.6,0016.43,0007.97,0007.16
2022-11-13 10:16:00,,0820.6,5.01,0.00,22.3,21.0,00.0,31.0,24.1,07.9,-001.6,0016.00,0007.79,0006.98
2022-11-13 10:17:00,,0820.6,5.00,0.00,22.3,20.9,00.0,31.0,24.1,08.2,-000.1,0015.47,0007.57,0006.80
2022-11-13 10:18:00,,0820.6,5.00,0.00,22.3,20.9,00.0,31.0,24.1,08.4,-000.1,0015.37,0007.47,0006.67
2022-11-13 10:19:00,,0820.7,5.00,0.00,22.2,20.8,00.0,31.1,24.1,08.7,0001.3,0014.94,0007.39,0006.60
2022-11-13 10:20:00,,0820.7,5.00,0.00,22.2,20.8,00.0,31.1,24.0,08.7,0001.9,0014.69,0007.40,0006.58
2022-11-13 10:21:00,,0820.7,5.00,0.00,22.2,20.8,00.0,31.1,24.0,08.8,0002.6,0014.94,0007.48,0006.61
2022-11-13 10:22:00,,0820.6,5.00,0.00,22.2,20.7,00.0,31.0,24.0,08.9,0002.2,0015.11,0007.62,0006.75
2022-11-13 10:23:00,,0820.6,5.00,0.00,22.2,20.7,00.0,31.1,24.0,08.9,0001.3,0015.46,0007.86,0006.95
2022-11-13 10:24:00,,0820.6,5.01,0.00,22.2,20.7,00.0,31.1,24.0,09.0,0000.8,0015.78,0008.15,0007.24
2022-11-13 10:25:00,,0820.6,4.98,0.00,22.2,20.6,00.0,31.0,24.0,08.9,0001.6,0014.61,0008.46,0007.51
2022-11-13 10:26:00,,0820.6,5.01,0.00,22.2,21.0,00.0,31.0,24.1,08.9,0001.8,0014.46,0008.70,0007.79
2022-11-13 10:27:00,,0820.6,5.00,0.00,22.3,22.0,00.0,31.0,24.3,08.9,0000.2,0015.24,0008.98,0008.07
2022-11-13 10:28:00,,0820.6,5.00,0.00,22.4,22.4,00.0,31.0,24.4,08.8,0000.2,0015.86,0009.22,0008.27
2022-11-13 10:29:00,,0820.6,4.99,0.00,22.4,22.1,00.0,31.1,24.4,08.7,0000.6,0017.06,0009.37,0008.41
2022-11-13 10:30:00,,0820.6,5.01,0.00,22.4,21.8,00.0,31.1,24.4,08.7,-000.3,0017.87,0009.47,0008.46
2022-11-13 10:31:00,,0820.6,4.98,0.00,22.4,21.6,00.0,31.1,24.3,08.7,-000.4,0018.15,0009.50,0008.45
2022-11-13 10:32:00,,0820.6,5.02,0.00,22.4,21.4,00.0,31.1,24.3,08.7,-000.8,0017.94,0009.53,0008.46
2022-11-13 10:33:00,,0820.6,5.00,0.00,22.4,21.2,00.0,31.1,24.3,08.8,0000.0,0017.96,0009.51,0008.46
2022-11-13 10:34:00,,0820.6,4.98,0.00,22.4,21.1,00.0,31.2,24.2,08.8,0001.2,0018.81,0009.52,0008.46
2022-11-13 10:35:00,,0820.6,5.01,0.00,22.4,21.1,00.0,31.2,24.2,08.8,0001.6,0019.15,0009.54,0008.45
2022-11-13 10:36:00,,0820.6,5.01,0.00,22.4,21.1,00.0,31.2,24.2,08.8,0002.2,0019.20,0009.52,0008.45
2022-11-13 10:37:00,,0820.6,5.01,0.00,22.4,21.1,00.0,31.2,24.2,08.8,0002.3,0019.68,0009.59,0008.47
2022-11-13 10:38:00,,0820.6,4.98,0.00,22.4,21.1,00.0,31.2,24.2,08.8,0003.2,0019.17,0009.62,0008.47
2022-11-13 10:39:00,,0820.6,5.00,0.00,22.4,21.1,00.0,31.2,24.2,08.8,0003.0,0019.91,0009.63,0008.48
2022-11-13 10:40:00,,0820.6,5.00,0.00,22.4,21.1,00.0,31.2,24.2,08.8,0002.3,0019.31,0009.64,0008.50
2022-11-13 10:41:00,,0820.6,5.00,0.00,22.3,20.9,00.0,31.2,24.2,08.7,0001.6,0019.34,0009.56,0008.47
2022-11-13 10:42:00,,0820.6,5.00,0.00,22.3,20.8,00.0,31.2,24.1,08.7,0001.3,0019.05,0009.49,0008.47
2022-11-13 10:43:00,,0820.6,4.99,0.00,22.3,20.7,00.0,31.2,24.1,08.7,0002.0,0018.86,0009.45,0008.45
2022-11-13 10:44:00,,0820.6,5.02,0.00,22.3,20.7,00.0,31.2,24.1,08.7,0002.7,0018.87,0009.42,0008.41
2022-11-13 10:45:00,,0820.6,4.98,0.00,22.3,20.7,00.0,31.2,24.1,08.7,0002.5,0018.98,0009.34,0008.37
2022-11-13 10:46:00,,0820.7,5.00,0.00,22.3,20.7,00.0,31.2,24.1,08.7,0001.5,0019.47,0009.25,0008.32
2022-11-13 10:47:00,,0820.7,5.00,0.00,22.2,20.8,00.0,31.2,24.1,08.7,0000.4,0019.24,0009.19,0008.28
2022-11-13 10:48:00,,0820.7,5.02,0.00,22.2,20.9,00.0,31.1,24.1,08.7,-000.1,0018.67,0009.08,0008.20
2022-11-13 10:49:00,,0820.7,4.99,0.00,22.3,21.7,00.0,31.1,24.3,08.6,-001.3,0018.64,0009.05,0008.15
2022-11-13 10:50:00,,0820.7,5.01,0.00,22.4,22.5,00.0,31.1,24.5,08.6,-002.0,0018.26,0008.97,0008.09
2022-11-13 10:51:00,,0820.7,5.01,0.00,22.5,22.3,00.0,31.1,24.5,08.6,-001.8,0018.27,0008.91,0008.04
2022-11-13 10:52:00,,0820.6,4.99,0.00,22.5,22.1,00.0,31.2,24.5,08.5,-000.8,0018.40,0008.88,0008.00
2022-11-13 10:53:00,,0820.7,4.99,0.00,22.5,21.8,00.0,31.2,24.4,08.5,0000.6,0018.98,0008.86,0007.98
2022-11-13 10:54:00,,0820.6,5.00,0.00,22.5,21.7,00.0,31.2,24.4,08.5,0000.3,0020.09,0008.80,0007.94
2022-11-13 10:55:00,,0820.6,5.01,0.00,22.5,21.6,00.0,31.2,24.4,08.5,-000.2,0020.42,0008.78,0007.92
2022-11-13 10:56:00,,0820.6,4.99,0.00,22.5,21.5,00.0,31.3,24.4,08.5,-001.5,0019.91,0008.82,0007.91
2022-11-13 10:57:00,,0820.6,5.01,0.00,22.5,21.4,00.0,31.3,24.3,08.6,-000.7,0019.40,0008.87,0007.92
2022-11-13 10:58:00,,0820.6,4.99,0.00,22.5,21.4,00.0,31.3,24.3,08.6,0000.1,0019.50,0008.90,0007.90
2022-11-13 10:59:00,,0820.6,5.02,0.00,22.5,21.3,00.0,31.3,24.3,08.6,0000.2,0019.48,0008.91,0007.91
